SCP
0 0 0 0 0 0 0 0 0 0 0 0 0 0 0 0 0 0 0 0 0 0 0 0 0 0 0 0 0 0 0 0 0 0 0 0 0 0 0 0 0 0 0 0
0 0 0 0 0 0 0 0 0 0 0 0 0 0 0 0 0 0 0 0 0 0 0 0 0 0 0 0 0 0 0 0 0 0 0 0 0 0 0 0 0 0 0 0
0 0 0 0 0 0 0 0 0 0 0 0 0 0 0 0 0 0 0 0 0 0 0 0 0 0 0 0 0 0 0 0 0 0 0 0 0 0 0 0 0 0 0 0
0 0 0 0 0 0 0 0 0 0 0 0 0 0 0 0 0 0 0 0 0 0 0 0 0 0 0 0 0 0 0 0 0 0 0 0 0 0 0 0 0 0 0 0
0 0 0 0 0 0 0 0 0 0 0 0 0 0 0 0 0 0 0 0 0 0 0 0 0 0 0 0 0 0 0 0 0 0 0 0 0 0 0 0 0 0 0 0
0 0 0 0 0 0 0 0 0 0 0 0 0 0 0 0 0 0 0 0 0 0 0 0 0 0 0 0 0 0 0 0 0 0 0 0 0 0 0 0 0 0 0 0
0 0 0 0 0 0 0 0 0 0 0 0 0 0 0 0 0 0 0 0 0 0 0 0 0 0 0 0 0 0 0 0 0 0 0 0 0 0 0 0 0 0 0 0
0 0 0 0 0 0 0 0 0 0 0 0 0 0 0 0 0 0 0 0 0 0 0 0 0 0 0 0 0 0 0 0 0 0 0 0 0 0 0 0 0 0 0 0
0 0 0 0 0 0 0 0 0 0 0 0 0 0 0 0 0 0 0 0 0 0 0 0 0 0 0 0 0 0 0 0 0 0 0 0 0 0 0 0 0 0 0 0
0 0 0 0 0 0 0 0 0 0 0 0 0 0 0 0 0 0 0 0 0 0 0 0 0 0 0 0 0 0 0 0 0 0 0 0 0 0 0 0 0 0 0 0
0 0 0 0 0 0 0 0 0 0 0 0 0 0 0 0 0 0 0 0 0 0 0 0 0 0 0 0 0 0 0 0 0 0 0 0 0 0 0 0 0 0 0 0
0 0 0 0 0 0 0 0 0 0 0 0 0 0 0 0 0 0 0 0 0 0 0 0 0 0 0 0 0 0 0 0 0 0 0 0 0 0 0 0 0 0 0 0
0 0 0 0 0 0 0 0 0 0 0 0 0 0 0 0 0 0 0 0 0 0 0 0 0 0 0 0 0 0 0 0 0 0 0 0 0 0 0 0 0 0 0 0
0 0 0 0 0 0 0 0 0 0 0 0 0 0 0 0 0 0 0 0 0 0 0 0 0 0 0 0 0 0 0 0 0 0 0 0 0 0 0 0 0 0 0 0
0 0 0 0 0 0 0 0 0 0 0 0 0 0 0 -0 0 0 0 0 0 0 0 0 0 0 0 0 0 0 0 0 0 0 0 0 0 0 0 0 0 0 0 0
0 0 0 0 0 0 0 0 0 0 0 0 0 0 0 0 0 0 0 0 0 0 0 0 0 0 0 0 0 0 0 0 0 0 0 0 0 0 0 0 0 0 0 0
0 0 0 0 0 0 -0 0 0 0 0 0 0 0 0 0 0 0 0 0 0 0 0 0 0 0 0 0 0 0 0 0 0 0 0 0 0 0 0 0 0 0 0 0
0 0 0 0 0 0 0 0 0 0 0 0 0 0 0 0 0 0 0 0 0 0 0 0 0 0 0 0 0 0 0 0 0 0 0 0 0 0 0 0 0 0 0 0
0 0 0 0 0 0 0 0 0 0 0 0 0 0 0 0 0 0 0 0 0 0 0 0 0 0 0 0 0 0 0 0 0 0 0 0 0 0 0 0 0 0 0 0
0 0 0 0 0 0 0 0 0 0 0 0 0 0 0 0 0 0 0 0 0 0 0 0 0 0 0 0 0 0 0 0 0 0 0 0 0 0 0 0 0 0 0 0
0 0 0 0 0 0 -0 0 0 0 0 0 0 0 0 0 0 0 0 0 0 0 0 0 0 0 0 0 0 0 0 0 0 0 0 0 0 0 0 0 0 0 0 0
0 0 0 0 0 0 0 0 0 0 0 0 0 0 0 0 0 0 0 0 0 0 0 0 0 0 0 0 0 0 0 0 0 0 0 0 0 0 0 0 0 0 0 0
0 0 0 0 0 0 -0 0 0 0 0 -0 0 0 0 0 0 0 0 0 0 0 0 0 0 0 0 0 0 0 0 0 0 0 0 0 0 0 0 0 0 0 0 0
0 0 0 0 0 0 0 -0 0 0 0 0 0 0 0 0 0 0 0 0 0 0 0 0 0 0 0 0 0 0 0 0 0 0 0 0 0 0 0 0 0 0 0 0
0 0 0 0 0 0 0 0 0 0 0 0 0 0 0 0 0 0 0 0 0 0 0 0 0 0 0 0 0 0 0 0 0 0 0 0 0 0 0 0 0 0 0 0
0 0 0 0 0 0 0 0 0 0 0 0 0 0 0 0 0 0 0 0 0 0 0 0 0 0 0 0 0 0 0 0 0 0 0 0 0 0 0 0 0 0 0 0
Wind_Speed_500mb
28 15 38 31 26 13 21 17 17 7 11 8 10 7 4 3 9 11 22 30 31 31 30 32 29 34 27 23 20 19 20 19 21 22 20 22 24 27 29 30 28 29 34 32
9 26 9 26 14 16 30 25 12 11 7 7 6 9 2 3 4 9 15 29 34 33 32 36 35 32 32 28 25 24 24 23 16 19 26 28 27 25 22 21 23 25 28 30
6 7 8 16 12 28 10 32 17 14 11 5 8 9 8 5 7 8 16 23 28 30 29 33 38 39 35 32 28 28 26 24 23 24 26 25 27 23 22 23 23 25 28 31
11 6 10 24 8 9 10 6 18 32 26 8 6 8 12 13 13 11 20 24 29 32 30 30 30 33 32 26 25 25 23 20 19 20 22 24 24 22 24 29 26 25 26 27
3 12 13 11 5 4 7 10 17 17 25 10 11 7 4 18 16 19 27 29 32 32 32 32 30 29 26 22 17 13 11 10 11 11 12 13 14 18 20 20 21 24 26 30
7 7 7 6 15 11 23 20 16 11 4 10 13 18 8 14 25 10 20 36 38 37 35 34 33 30 28 24 18 13 8 4 1 1 4 6 8 10 15 19 24 28 30 31
13 10 9 12 15 11 4 13 5 3 5 5 3 11 18 13 13 18 37 55 50 42 40 38 35 31 26 21 15 10 7 5 4 5 6 8 12 15 20 25 29 32 33 34
6 3 5 9 6 4 4 1 8 11 8 5 3 13 11 9 30 45 59 64 51 44 41 37 31 26 22 16 12 11 8 4 4 4 6 10 13 17 20 23 26 31 36 40
8 3 4 3 5 4 5 5 4 7 3 4 9 12 15 6 10 30 43 58 54 47 44 37 31 24 19 16 15 11 8 4 3 5 7 9 11 14 17 22 28 33 37 40
5 7 4 3 5 11 1 9 7 1 10 8 8 10 11 11 22 23 32 50 59 51 46 39 32 26 22 19 15 13 7 2 2 3 6 9 14 17 21 26 31 37 42 47
6 3 3 5 7 10 5 5 5 5 4 5 4 11 4 27 32 37 47 55 67 58 52 43 33 26 23 20 18 17 10 4 1 1 6 11 14 19 24 31 38 46 50 55
9 7 6 0 5 8 1 5 5 5 8 6 2 11 6 9 25 41 49 49 65 61 54 43 35 29 26 23 22 22 16 9 6 7 9 13 18 24 32 39 45 53 60 62
11 2 5 5 2 2 9 13 12 2 2 9 7 8 7 7 18 38 44 56 69 62 58 49 41 36 29 26 27 28 22 12 11 12 14 18 25 32 39 48 55 62 68 71
7 6 8 8 5 7 10 12 15 13 5 5 10 13 7 5 12 26 49 62 75 69 62 55 48 41 33 30 31 31 25 18 18 18 20 24 32 39 47 55 63 67 69 74
8 7 3 2 4 1 5 8 14 17 25 15 5 16 10 10 19 46 59 61 72 77 68 63 55 46 38 35 36 33 28 25 25 25 25 30 39 46 55 63 67 70 74 77
3 2 4 6 3 3 6 10 14 17 27 20 32 39 17 21 19 29 51 62 72 86 78 69 59 50 44 38 35 31 30 29 31 32 31 39 48 53 62 66 69 73 77 81
6 11 6 9 7 8 13 21 34 12 13 23 27 43 13 20 25 46 57 68 79 89 87 77 67 56 46 38 33 34 29 31 34 34 36 46 54 61 63 66 70 76 83 89
8 9 5 6 7 5 13 3 5 25 27 24 24 15 15 29 56 55 57 63 72 87 90 81 68 56 45 37 35 33 31 33 34 34 42 49 59 61 63 69 75 83 89 95
7 8 5 7 7 14 15 9 14 14 17 22 38 40 43 27 25 39 55 59 59 71 83 76 62 50 41 39 37 33 31 32 33 39 47 54 58 61 66 74 82 88 97 100
7 11 7 6 9 13 12 4 7 5 10 5 21 23 19 30 17 13 46 51 54 65 72 67 57 48 43 38 33 30 29 31 36 44 50 53 56 63 72 79 87 94 93 95
5 3 10 5 5 17 18 9 12 11 10 13 18 20 33 20 20 6 14 43 54 54 57 52 48 43 39 35 30 28 30 34 41 47 50 52 59 68 75 83 86 87 90 89
15 17 8 7 6 18 18 13 13 8 7 14 27 18 27 41 13 24 8 21 39 40 41 43 41 39 35 29 29 30 33 40 46 49 51 55 63 70 77 80 81 80 80 82
5 14 11 19 14 7 40 17 28 21 13 14 33 28 12 29 30 17 16 15 23 36 40 37 34 36 30 30 29 32 38 44 47 48 53 60 65 71 72 75 75 76 75 75
9 14 5 6 11 25 46 47 58 42 37 33 25 22 21 15 24 38 30 26 29 35 37 35 36 32 29 30 33 37 42 46 47 50 56 62 68 69 69 67 67 68 68 67
8 20 13 9 20 32 44 46 47 46 47 52 46 37 28 23 19 24 28 31 32 32 35 33 30 29 30 31 35 40 43 44 47 51 58 64 64 64 64 62 60 59 53 51
22 15 12 11 29 25 44 53 30 31 37 36 34 38 41 33 24 26 34 34 37 34 31 29 29 31 30 30 38 41 42 45 49 55 58 58 59 61 59 57 53 44 44 43
Wind_Direction_500mb
163 175 193 185 183 128 158 160 154 113 159 153 207 232 265 283 185 184 207 208 211 213 208 198 202 211 221 216 223 248 252 262 271 271 282 289 291 294 298 305 308 313 315 308
124 191 139 135 130 154 156 161 149 64 112 113 201 229 276 185 206 212 189 190 196 204 205 202 207 204 211 223 228 235 245 257 259 268 276 283 285 286 291 303 313 319 326 327
105 93 130 148 124 154 166 172 164 154 135 62 131 276 212 194 154 184 197 189 193 194 194 196 204 210 210 213 222 234 251 264 260 255 263 268 275 287 301 306 320 319 318 319
58 2 142 140 169 153 163 110 161 139 148 201 182 249 223 199 207 210 222 203 205 198 191 190 189 197 206 215 229 244 250 253 255 258 262 269 279 292 301 316 320 321 313 317
332 28 57 86 115 213 113 149 144 166 158 136 188 263 217 166 213 219 221 210 210 201 197 195 198 204 202 188 181 184 198 221 236 251 264 271 280 293 307 323 336 340 338 335
69 39 41 49 43 102 121 91 63 56 93 224 177 208 211 192 210 173 202 207 187 172 163 160 155 154 151 148 150 155 162 183 203 348 357 351 350 346 341 340 342 341 339 336
16 11 359 36 85 11 181 131 96 116 198 236 312 210 253 202 226 197 186 185 176 170 168 165 163 161 159 160 165 168 163 145 95 46 19 1 349 347 344 341 338 335 334 334
125 167 352 359 21 138 93 32 149 179 194 156 91 236 233 204 214 196 189 178 174 175 175 172 171 167 167 170 162 142 128 113 61 10 345 341 341 343 343 343 343 342 342 341
136 91 7 342 5 357 144 114 113 98 21 109 210 276 287 130 147 162 172 178 181 180 178 176 175 176 180 173 158 160 145 92 346 341 1 0 356 353 353 351 349 344 340 336
144 108 356 333 85 24 72 132 114 50 149 226 258 268 244 216 185 180 180 184 185 182 181 181 182 185 185 180 180 176 168 360 20 37 23 359 358 355 349 344 340 337 335 331
124 86 145 215 183 165 128 136 96 104 155 180 305 259 245 201 188 187 189 190 188 186 186 187 187 191 194 196 196 199 223 289 298 346 350 351 340 331 330 331 331 327 325 323
192 118 144 63 76 138 194 176 158 127 214 237 244 275 343 261 191 186 188 190 193 191 192 193 198 203 208 211 210 215 231 258 251 265 303 320 320 322 324 324 323 322 323 321
181 183 97 115 155 95 202 193 196 207 129 218 167 263 22 20 162 188 187 194 196 196 199 201 206 214 218 222 220 224 232 258 271 275 300 316 319 321 320 319 322 321 319 318
155 156 186 190 150 127 195 188 191 186 174 231 230 289 318 61 180 188 196 202 200 202 203 206 213 219 226 229 228 230 236 259 275 285 301 316 316 317 318 319 318 317 317 316
146 171 139 106 93 238 209 198 187 202 225 219 242 228 251 228 200 203 203 202 204 206 208 211 217 223 228 234 233 234 242 257 275 288 305 318 314 317 317 316 318 318 317 316
17 167 96 324 348 340 274 244 230 227 240 250 258 269 220 255 218 202 207 204 207 209 211 215 222 226 232 239 239 239 250 259 272 286 306 314 316 315 316 317 318 316 316 317
122 134 96 266 353 347 307 219 211 200 211 206 227 240 169 204 205 208 207 211 214 215 214 218 223 229 237 245 239 239 255 262 275 290 307 311 312 314 317 316 316 316 316 316
125 95 62 213 22 323 244 124 188 220 251 231 265 264 221 222 228 230 226 219 218 218 217 221 226 232 239 241 232 240 253 266 277 292 302 309 311 315 315 315 316 317 317 317
30 111 97 136 194 303 297 195 170 173 273 220 231 249 241 237 240 239 229 227 228 222 221 225 230 234 239 237 230 242 254 270 284 296 305 310 312 313 314 316 318 318 317 318
57 61 115 87 140 218 242 227 189 120 298 251 229 251 204 162 220 239 230 220 221 225 224 228 226 230 231 228 233 246 262 277 290 300 306 310 311 313 317 317 318 318 319 321
122 50 165 159 223 290 244 182 145 81 241 325 317 308 186 196 214 143 214 217 220 222 226 227 220 226 226 222 239 257 271 285 294 301 307 310 312 313 314 316 319 322 324 323
163 159 183 97 86 272 157 97 167 222 347 359 1 349 218 215 257 224 229 211 206 205 199 201 207 210 209 233 250 265 280 291 298 305 308 309 311 314 317 320 322 324 326 326
225 183 180 184 205 237 193 215 230 264 294 328 344 352 318 227 211 186 186 171 196 202 198 203 206 201 221 240 257 275 284 293 301 306 305 308 314 319 322 325 327 328 329 328
245 181 199 90 259 235 237 240 251 261 267 284 297 314 335 286 240 229 225 220 204 194 199 198 197 214 234 255 271 281 292 298 302 303 309 316 321 323 326 330 332 332 335 336
175 142 171 267 275 282 279 261 258 262 269 274 270 279 293 301 271 222 216 195 189 188 187 198 216 232 247 263 275 286 293 297 299 308 316 321 325 329 332 334 338 341 346 343
191 179 180 217 220 207 252 276 282 279 275 281 279 269 268 269 274 243 214 207 203 200 203 215 232 245 257 267 279 285 290 294 304 312 318 325 329 331 333 337 346 2 357 355
Wind_Speed_850mb
28 15 38 31 26 13 21 17 17 7 11 8 10 7 4 3 9 11 22 30 31 31 30 32 29 34 27 23 20 19 20 19 21 22 20 22 24 27 29 30 28 29 34 32
9 26 9 26 14 16 30 25 12 11 7 7 6 9 2 3 4 9 15 29 34 33 32 36 35 32 32 28 25 24 24 23 16 19 26 28 27 25 22 21 23 25 28 30
6 7 8 16 12 28 10 32 17 14 11 5 8 9 8 5 7 8 16 23 28 30 29 33 38 39 35 32 28 28 26 24 23 24 26 25 27 23 22 23 23 25 28 31
11 6 10 24 8 9 10 6 18 32 26 8 6 8 12 13 13 11 20 24 29 32 30 30 30 33 32 26 25 25 23 20 19 20 22 24 24 22 24 29 26 25 26 27
3 12 13 11 5 4 7 10 17 17 25 10 11 7 4 18 16 19 27 29 32 32 32 32 30 29 26 22 17 13 11 10 11 11 12 13 14 18 20 20 21 24 26 30
7 7 7 6 15 11 23 20 16 11 4 10 13 18 8 14 25 10 20 36 38 37 35 34 33 30 28 24 18 13 8 4 1 1 4 6 8 10 15 19 24 28 30 31
13 10 9 12 15 11 4 13 5 3 5 5 3 11 18 13 13 18 37 55 50 42 40 38 35 31 26 21 15 10 7 5 4 5 6 8 12 15 20 25 29 32 33 34
6 3 5 9 6 4 4 1 8 11 8 5 3 13 11 9 30 45 59 64 51 44 41 37 31 26 22 16 12 11 8 4 4 4 6 10 13 17 20 23 26 31 36 40
8 3 4 3 5 4 5 5 4 7 3 4 9 12 15 6 10 30 43 58 54 47 44 37 31 24 19 16 15 11 8 4 3 5 7 9 11 14 17 22 28 33 37 40
5 7 4 3 5 11 1 9 7 1 10 8 8 10 11 11 22 23 32 50 59 51 46 39 32 26 22 19 15 13 7 2 2 3 6 9 14 17 21 26 31 37 42 47
6 3 3 5 7 10 5 5 5 5 4 5 4 11 4 27 32 37 47 55 67 58 52 43 33 26 23 20 18 17 10 4 1 1 6 11 14 19 24 31 38 46 50 55
9 7 6 0 5 8 1 5 5 5 8 6 2 11 6 9 25 41 49 49 65 61 54 43 35 29 26 23 22 22 16 9 6 7 9 13 18 24 32 39 45 53 60 62
11 2 5 5 2 2 9 13 12 2 2 9 7 8 7 7 18 38 44 56 69 62 58 49 41 36 29 26 27 28 22 12 11 12 14 18 25 32 39 48 55 62 68 71
7 6 8 8 5 7 10 12 15 13 5 5 10 13 7 5 12 26 49 62 75 69 62 55 48 41 33 30 31 31 25 18 18 18 20 24 32 39 47 55 63 67 69 74
8 7 3 2 4 1 5 8 14 17 25 15 5 16 10 10 19 46 59 61 72 77 68 63 55 46 38 35 36 33 28 25 25 25 25 30 39 46 55 63 67 70 74 77
3 2 4 6 3 3 6 10 14 17 27 20 32 39 17 21 19 29 51 62 72 86 78 69 59 50 44 38 35 31 30 29 31 32 31 39 48 53 62 66 69 73 77 81
6 11 6 9 7 8 13 21 34 12 13 23 27 43 13 20 25 46 57 68 79 89 87 77 67 56 46 38 33 34 29 31 34 34 36 46 54 61 63 66 70 76 83 89
8 9 5 6 7 5 13 3 5 25 27 24 24 15 15 29 56 55 57 63 72 87 90 81 68 56 45 37 35 33 31 33 34 34 42 49 59 61 63 69 75 83 89 95
7 8 5 7 7 14 15 9 14 14 17 22 38 40 43 27 25 39 55 59 59 71 83 76 62 50 41 39 37 33 31 32 33 39 47 54 58 61 66 74 82 88 97 100
7 11 7 6 9 13 12 4 7 5 10 5 21 23 19 30 17 13 46 51 54 65 72 67 57 48 43 38 33 30 29 31 36 44 50 53 56 63 72 79 87 94 93 95
5 3 10 5 5 17 18 9 12 11 10 13 18 20 33 20 20 6 14 43 54 54 57 52 48 43 39 35 30 28 30 34 41 47 50 52 59 68 75 83 86 87 90 89
15 17 8 7 6 18 18 13 13 8 7 14 27 18 27 41 13 24 8 21 39 40 41 43 41 39 35 29 29 30 33 40 46 49 51 55 63 70 77 80 81 80 80 82
5 14 11 19 14 7 40 17 28 21 13 14 33 28 12 29 30 17 16 15 23 36 40 37 34 36 30 30 29 32 38 44 47 48 53 60 65 71 72 75 75 76 75 75
9 14 5 6 11 25 46 47 58 42 37 33 25 22 21 15 24 38 30 26 29 35 37 35 36 32 29 30 33 37 42 46 47 50 56 62 68 69 69 67 67 68 68 67
8 20 13 9 20 32 44 46 47 46 47 52 46 37 28 23 19 24 28 31 32 32 35 33 30 29 30 31 35 40 43 44 47 51 58 64 64 64 64 62 60 59 53 51
22 15 12 11 29 25 44 53 30 31 37 36 34 38 41 33 24 26 34 34 37 34 31 29 29 31 30 30 38 41 42 45 49 55 58 58 59 61 59 57 53 44 44 43
Wind_Direction_850mb
163 175 193 185 183 128 158 160 154 113 159 153 207 232 265 283 185 184 207 208 211 213 208 198 202 211 221 216 223 248 252 262 271 271 282 289 291 294 298 305 308 313 315 308
124 191 139 135 130 154 156 161 149 64 112 113 201 229 276 185 206 212 189 190 196 204 205 202 207 204 211 223 228 235 245 257 259 268 276 283 285 286 291 303 313 319 326 327
105 93 130 148 124 154 166 172 164 154 135 62 131 276 212 194 154 184 197 189 193 194 194 196 204 210 210 213 222 234 251 264 260 255 263 268 275 287 301 306 320 319 318 319
58 2 142 140 169 153 163 110 161 139 148 201 182 249 223 199 207 210 222 203 205 198 191 190 189 197 206 215 229 244 250 253 255 258 262 269 279 292 301 316 320 321 313 317
332 28 57 86 115 213 113 149 144 166 158 136 188 263 217 166 213 219 221 210 210 201 197 195 198 204 202 188 181 184 198 221 236 251 264 271 280 293 307 323 336 340 338 335
69 39 41 49 43 102 121 91 63 56 93 224 177 208 211 192 210 173 202 207 187 172 163 160 155 154 151 148 150 155 162 183 203 348 357 351 350 346 341 340 342 341 339 336
16 11 359 36 85 11 181 131 96 116 198 236 312 210 253 202 226 197 186 185 176 170 168 165 163 161 159 160 165 168 163 145 95 46 19 1 349 347 344 341 338 335 334 334
125 167 352 359 21 138 93 32 149 179 194 156 91 236 233 204 214 196 189 178 174 175 175 172 171 167 167 170 162 142 128 113 61 10 345 341 341 343 343 343 343 342 342 341
136 91 7 342 5 357 144 114 113 98 21 109 210 276 287 130 147 162 172 178 181 180 178 176 175 176 180 173 158 160 145 92 346 341 1 0 356 353 353 351 349 344 340 336
144 108 356 333 85 24 72 132 114 50 149 226 258 268 244 216 185 180 180 184 185 182 181 181 182 185 185 180 180 176 168 360 20 37 23 359 358 355 349 344 340 337 335 331
124 86 145 215 183 165 128 136 96 104 155 180 305 259 245 201 188 187 189 190 188 186 186 187 187 191 194 196 196 199 223 289 298 346 350 351 340 331 330 331 331 327 325 323
192 118 144 63 76 138 194 176 158 127 214 237 244 275 343 261 191 186 188 190 193 191 192 193 198 203 208 211 210 215 231 258 251 265 303 320 320 322 324 324 323 322 323 321
181 183 97 115 155 95 202 193 196 207 129 218 167 263 22 20 162 188 187 194 196 196 199 201 206 214 218 222 220 224 232 258 271 275 300 316 319 321 320 319 322 321 319 318
155 156 186 190 150 127 195 188 191 186 174 231 230 289 318 61 180 188 196 202 200 202 203 206 213 219 226 229 228 230 236 259 275 285 301 316 316 317 318 319 318 317 317 316
146 171 139 106 93 238 209 198 187 202 225 219 242 228 251 228 200 203 203 202 204 206 208 211 217 223 228 234 233 234 242 257 275 288 305 318 314 317 317 316 318 318 317 316
17 167 96 324 348 340 274 244 230 227 240 250 258 269 220 255 218 202 207 204 207 209 211 215 222 226 232 239 239 239 250 259 272 286 306 314 316 315 316 317 318 316 316 317
122 134 96 266 353 347 307 219 211 200 211 206 227 240 169 204 205 208 207 211 214 215 214 218 223 229 237 245 239 239 255 262 275 290 307 311 312 314 317 316 316 316 316 316
125 95 62 213 22 323 244 124 188 220 251 231 265 264 221 222 228 230 226 219 218 218 217 221 226 232 239 241 232 240 253 266 277 292 302 309 311 315 315 315 316 317 317 317
30 111 97 136 194 303 297 195 170 173 273 220 231 249 241 237 240 239 229 227 228 222 221 225 230 234 239 237 230 242 254 270 284 296 305 310 312 313 314 316 318 318 317 318
57 61 115 87 140 218 242 227 189 120 298 251 229 251 204 162 220 239 230 220 221 225 224 228 226 230 231 228 233 246 262 277 290 300 306 310 311 313 317 317 318 318 319 321
122 50 165 159 223 290 244 182 145 81 241 325 317 308 186 196 214 143 214 217 220 222 226 227 220 226 226 222 239 257 271 285 294 301 307 310 312 313 314 316 319 322 324 323
163 159 183 97 86 272 157 97 167 222 347 359 1 349 218 215 257 224 229 211 206 205 199 201 207 210 209 233 250 265 280 291 298 305 308 309 311 314 317 320 322 324 326 326
225 183 180 184 205 237 193 215 230 264 294 328 344 352 318 227 211 186 186 171 196 202 198 203 206 201 221 240 257 275 284 293 301 306 305 308 314 319 322 325 327 328 329 328
245 181 199 90 259 235 237 240 251 261 267 284 297 314 335 286 240 229 225 220 204 194 199 198 197 214 234 255 271 281 292 298 302 303 309 316 321 323 326 330 332 332 335 336
175 142 171 267 275 282 279 261 258 262 269 274 270 279 293 301 271 222 216 195 189 188 187 198 216 232 247 263 275 286 293 297 299 308 316 321 325 329 332 334 338 341 346 343
191 179 180 217 220 207 252 276 282 279 275 281 279 269 268 269 274 243 214 207 203 200 203 215 232 245 257 267 279 285 290 294 304 312 318 325 329 331 333 337 346 2 357 355